{"data":{"norad_id":66282,"epoch":"2026-09-20T13:31:18.191136Z","epoch_age_seconds":91203,"freshness":"FRESH","line1":"1 66282U 25247T   26263.56340499  .00021175  00000+0  63617-3 0  9994","line2":"2 66282  53.1599   3.1569 0001028  60.2599 299.8506 15.34394973 50916","mean_motion":15.34394973,"eccentricity":0.0001028,"inclination_deg":53.1599,"raan_deg":3.1569,"arg_perigee_deg":60.2599,"mean_anomaly_deg":299.8506,"bstar":0.00063617,"rev_number":5091,"period_min":93.848065546289,"perigee_km":462.01494163863,"apogee_km":463.42142146395,"semimajor_km":6840.8551815513,"source":"CELESTRAK","updated_at":"2026-09-21T09:00:35.870337Z"}}